Flag for China Weather past 2 weeks in Zhengzhou, Henan, China

Now
36 °F

Clear.


Feels Like: 33 °F
Forecast: 26 / 42 °F
Wind: 3 mph from Southwest

Location: Zhengzhou Airport

Current Time: Dec 20, 2014 at 9:05:41 PM

Latest Report: Dec 20, 2014 at 8:00 PM


Visibility: 5 mi

Pressure: 30.48 "Hg

Humidity: 23%

Dew point: 1 °F

Location of ZhengzhouLocation

Historic Weather in Zhengzhou — Graph

°F

Zhengzhou temperature yesterday

Maximum temperature yesterday: 55 °F (at 12:00 PM)
Minimum temperature yesterday: 27 °F (at 8:00 AM)
Average temperature yesterday: 43 °F

Past Weeks' High & Low Weather Summary

 TemperatureHumidityPressure
High55 °F (Dec 19, 12:00 PM)87% (Dec 10, 2:00 AM)30.66 "Hg (Dec 10, 2:00 AM)
Low23 °F (Dec 18, 7:00 AM)9% (Dec 19, 1:00 PM)30.18 "Hg (Dec 6, 3:00 PM)
Average39 °F35%30.40 "Hg
* Reported Dec 5 8:00 PM — Dec 20 8:00 PM, Zhengzhou, Weather by CustomWeather, © 2014

Note: Actual official high and low records may vary slightly from our data, if they occured in-between our weather recording intervals... More about our weather records

Advertising

Zhengzhou weather history for previous 24 hours

 ConditionsComfort  
Time TempWeatherWind HumidityBarometerVisibility
8:00 PM
Dec 20
36 °FClear.3 mph23%30.48 "Hg5 mi
7:00 PM36 °FClear.1 mph23%30.45 "Hg5 mi
6:00 PM36 °FClear.1 mph23%30.45 "Hg5 mi
5:00 PM37 °FClear.3 mph20%30.42 "Hg5 mi
4:00 PM37 °FClear.3 mph22%30.42 "Hg5 mi
3:00 PM37 °FClear.1 mph20%30.39 "Hg5 mi
2:00 PM37 °FClear.3 mph22%30.39 "Hg5 mi
1:00 PM37 °FClear.8 mph22%30.42 "Hg5 mi
12:00 PM36 °FHaze.6 mph25%30.45 "Hg3 mi
11:00 AM34 °FHaze.3 mph29%30.48 "Hg3 mi
10:00 AM34 °FHaze.8 mph32%30.48 "Hg3 mi
9:00 AM34 °FHaze.6 mph29%30.45 "Hg3 mi
8:00 AM32 °FHaze.8 mph32%30.42 "Hg3 mi
7:00 AM32 °FHaze.6 mph37%30.42 "Hg3 mi
6:00 AM32 °FHaze.6 mph37%30.42 "Hg3 mi
5:00 AM32 °FHaze.6 mph37%30.42 "Hg3 mi
4:00 AM34 °FHaze.8 mph32%30.42 "Hg3 mi
3:00 AM34 °FHaze.6 mph32%30.42 "Hg3 mi
2:00 AM34 °FHaze.1 mph32%30.42 "Hg3 mi
1:00 AM36 °FHaze.3 mph30%30.42 "Hg3 mi
12:00 AM37 °FHaze.8 mph28%30.42 "Hg3 mi
11:00 PM
Dec 19
37 °FHaze.8 mph30%30.42 "Hg3 mi
10:00 PM39 °FHaze.8 mph33%30.39 "Hg3 mi
9:00 PM43 °FClear.6 mph29%30.36 "Hg4 mi
Weather by CustomWeather, © 2014

See weather overviewHow to use our weather pages